Regional Weather Roundup
Issued by NWS

Home | Current Version | Previous Version | Graphics & Text | Print | Product List | Glossary On
Versions: 1 2 3 4 5 6 7 8 9 10 11 12 13 14 15 16 17 18 19 20 21 22 23 24 25 26 27 28 29 30 31 32 33 34 35 36 37 38 39 40 41 42 43 44 45 46 47 48 49 50
000
ASUS43 KFSD 301610
RWRSD

WEATHER ROUNDUP FOR SOUTH DAKOTA
NATIONAL WEATHER SERVICE SIOUX FALLS SD
1100 AM CDT SAT AUG 30 2014

NOTE: "FAIR" INDICATES FEW OR NO CLOUDS BELOW 12,000 FEET WITH NO
SIGNIFICANT WEATHER AND/OR OBSTRUCTIONS TO VISIBILITY.


SDZ001>005-009-010-012>017-301700-
NORTHWEST AND NORTH CENTRAL SOUTH DAKOTA

CITY           SKY/WX    TMP DP  RH WIND       PRES   REMARKS
BUFFALO          N/A     61  56  83 SE17      29.80F
FAITH            N/A     63  55  75 SE20G25   29.90F
MOBRIDGE       MOSUNNY   62  57  83 SE8       29.93S
$$

SDZ012>016-024>037-041>051-057-063-072>074-301700-
SOUTHWEST AND SOUTH CENTRAL SOUTH DAKOTA

CITY           SKY/WX    TMP DP  RH WIND       PRES   REMARKS
RAPID CTY ARPT SUNNY     68  57  68 SE15      29.88F
PIERRE         MOSUNNY   63  57  81 SE7       29.94F
CUSTER         SUNNY     70  49  47 VRB6      30.00F
ELLSWORTH AFB  SUNNY     68  58  70 S14       29.88F
PHILIP         SUNNY     68  57  68 SE15G23   29.91F
PINE RIDGE     SUNNY     69  59  70 S10       29.92F
WINNER         FAIR      68  57  68 S5        29.97F
$$

SDZ004>011-016>023-039-040-301700-
NORTHEAST SOUTH DAKOTA

CITY           SKY/WX    TMP DP  RH WIND       PRES   REMARKS
ABERDEEN       MOSUNNY   61  56  83 NE5       29.94S
WATERTOWN      CLOUDY    61  57  87 NW7       29.93S
SISSETON         N/A     64  57  78 N7        29.91S
$$

SDZ017-020-022-023-036>040-048>070-301700-
SOUTHEAST SOUTH DAKOTA

CITY           SKY/WX    TMP DP  RH WIND       PRES   REMARKS
SIOUX FALLS    CLOUDY    65  61  87 NW8       29.94R
HURON          CLOUDY    62  56  80 CALM      29.95R
CHAMBERLAIN    CLOUDY    59  56  88 CALM      29.97F
MITCHELL       CLOUDY    63  58  83 NW6       29.96S
YANKTON        CLOUDY    64  57  77 W8        29.96S
$$

ABBREVIATIONS USED IN REMARKS
   TC - TEMPERATURE IN CELSIUS
  WCI - WIND CHILL INDEX
   HX - HEAT INDEX
  VSB - VISIBILITY



USA.gov is the U.S. government's official web portal to all federal, state and local government web resources and services.